Tracking 18980 objects as of 19-Feb-2018
HD Live streaming from Space Station
objects crossing your sky now

RADUGA 11

Track RADUGA 11 now!
RADUGA 11 is classified as:


NORAD ID: 13669
Int'l Code: 1982-113A
Perigee: 36,358.9 km
Apogee: 36,697.2 km
Inclination: 14.6 °
Period: 1,473.8 minutes
Semi major axis: 42899 km
RCS: 1.9952 m2 (large)
Launch date: November 26, 1982
Source: Commonwealth of Independent States (former USSR) (CIS)
Launch site: TYURATAM MISSILE AND SPACE COMPLEX (TTMTR)
aabbcc
Your satellite tracking list
Your tracking list is empty




NASA's NSSDC Master Catalog

Two Line Element Set (TLE):
1 13669U 82113A   18049.45013355 -.00000084  00000-0  00000+0 0  9990
2 13669  14.5915 337.7280 0039435 217.3472 333.0464  0.97708248 91819
Source of the keplerian elements: AFSPC